Regional Weather Roundup
Issued by NWS

Home | Current Version | Previous Version | Graphics & Text | Print | Product List | Glossary On
Versions: 1 2 3 4 5 6 7 8 9 10 11 12 13 14 15 16 17 18 19 20 21 22 23 24 25 26 27 28 29 30 31 32 33 34 35 36 37 38 39 40 41 42 43 44 45 46 47 48 49 50
000
ASUS43 KFSD 281602
RWRSD

WEATHER ROUNDUP FOR SOUTH DAKOTA
NATIONAL WEATHER SERVICE SIOUX FALLS SD
1100 AM CDT THU APR 28 2016

NOTE: "FAIR" INDICATES FEW OR NO CLOUDS BELOW 12,000 FEET WITH NO
SIGNIFICANT WEATHER AND/OR OBSTRUCTIONS TO VISIBILITY.


SDZ001>005-009-010-012>017-281700-
NORTHWEST AND NORTH CENTRAL SOUTH DAKOTA

CITY           SKY/WX    TMP DP  RH WIND       PRES   REMARKS
BUFFALO          N/A     35  32  88 NE13      30.00R WCI  26
FAITH            N/A     33  31  92 NE12      30.05R WCI  24
MOBRIDGE       CLOUDY    42  36  79 N8        30.04S
$$

SDZ012>016-024>037-041>051-057-063-072>074-281700-
SOUTHWEST AND SOUTH CENTRAL SOUTH DAKOTA

CITY           SKY/WX    TMP DP  RH WIND       PRES   REMARKS
RAPID CTY ARPT CLOUDY    34  33  96 N8        30.04R FOG     WCI  27
PIERRE         CLOUDY    39  34  82 N12       30.03R
CUSTER         CLOUDY    31  23  72 VRB6      29.96R WCI  25
PHILIP         CLOUDY    40  36  86 N10       30.04S
PINE RIDGE     CLOUDY    35  31  85 N9        30.03R WCI  28
WINNER         CLOUDY    39  35  86 N13       30.01R
$$

SDZ004>011-016>023-039-040-281700-
NORTHEAST SOUTH DAKOTA

CITY           SKY/WX    TMP DP  RH WIND       PRES   REMARKS
ABERDEEN       CLOUDY    45  32  60 NE13      30.03S
WATERTOWN      LGT SNOW  34  31  88 NE10      29.99R FOG     WCI  26
BROOKINGS      CLOUDY    35  33  92 NE13      29.96R WCI  26
SISSETON         N/A     43  28  55 E14       30.02R
$$

SDZ017-020-022-023-036>040-048>070-281700-
SOUTHEAST SOUTH DAKOTA

CITY           SKY/WX    TMP DP  RH WIND       PRES   REMARKS
SIOUX FALLS    CLOUDY    40  37  89 NE8       29.95R
HURON          LGT RAIN  38  35  89 NE12      30.00R
MITCHELL       LGT RAIN  39  37  92 N13       29.99R
YANKTON        CLOUDY    43  36  75 N10       29.95R
$$

ABBREVIATIONS USED IN REMARKS
   TC - TEMPERATURE IN CELSIUS
  WCI - WIND CHILL INDEX
   HX - HEAT INDEX
  VSB - VISIBILITY





USA.gov is the U.S. government's official web portal to all federal, state and local government web resources and services.